Regional Weather Roundup
Issued by NWS

Home | Current Version | Previous Version | Graphics & Text | Print | Product List | Glossary Off
Versions: 1 2 3 4 5 6 7 8 9 10 11 12 13 14 15 16 17 18 19 20 21 22 23 24 25 26 27 28 29 30 31 32 33 34 35 36 37 38 39 40 41 42 43 44 45 46 47 48 49 50

000
ASUS43 KIND 021809
RWRIN

WEATHER ROUNDUP FOR INDIANA
NATIONAL WEATHER SERVICE INDIANAPOLIS IN
100 PM EST FRI DEC 02 2016

NOTE: "FAIR" INDICATES FEW OR NO CLOUDS BELOW 12,000 FEET WITH NO
SIGNIFICANT WEATHER AND/OR OBSTRUCTIONS TO VISIBILITY.

* - STATION DOES NOT REPORT WEATHER SUCH AS PRECIPITATION OR FOG.

+ - STATION NOT QUALITY CONTROLLED BY THE NATIONAL WEATHER SERVICE.
    USE DATA WITH CAUTION...ESPECIALLY DEWPOINT AND RELATIVE
    HUMIDITY OBSERVATIONS.

INZ001>003-010>013-019-020-021900-
NORTHWEST INDIANA

CITY           SKY/WX    TMP DP  RH WIND       PRES   REMARKS
GARY /AIRPORT/ CLOUDY    41  30  65 W12G25    30.18R
KNOX *+        CLOUDY    37  16  41 W14       30.15S
LA PORTE +     CLOUDY    40  37  89 NW8       30.15S
6HR MIN TEMP:  38; 6HR MAX TEMP:  40;

MICHIGAN CITY+ CLOUDY    37  30  75 NW8G18    30.15S
MONTICELLO +   DRIZZLE   38  31  74 W9        30.18S
6HR MIN TEMP:  35; 6HR MAX TEMP:  39;

RENSSELAER +     N/A     37  36  93 W12       30.19S
VALPARAISO     CLOUDY    40  31  70 W15       30.17R
6HR MIN TEMP:  37; 6HR MAX TEMP:  40;


$$

LMZ046-743>745-021900-
SOUTHERN LAKE MICHIGAN

STATION/POSITION TIME  TEMP    WIND        PRES    WAVE
                       AIR SEA DIR/SP/G            HT
                 (UTC) (F)     (DEG/KT/KT) (MB)    (FT)
BURNS HARBOR     1730   40     280/ 16/ 18 1021.3S
MICHIGAN CITY    1740   39     280/ 16/ 17   N/A

$$

INZ004-005-014>016-021>024-021900-
NORTH CENTRAL INDIANA

CITY           SKY/WX    TMP DP  RH WIND       PRES   REMARKS
ELKHART        PTSUNNY   37  34  87 W9        30.13R
GOSHEN         CLOUDY    37  32  82 W10       30.13R
6HR MIN TEMP:  36; 6HR MAX TEMP:  38; 6HR PCP:  0.01;

LOGANSPORT +   CLOUDY    37  32  81 W7        30.19R
PERU/GRISSOM   CLOUDY    39  32  75 W12       30.16R
6HR MIN TEMP:  35; 6HR MAX TEMP:  39; 6HR PCP: TRACE;

ROCHESTER +    CLOUDY    41  34  75 W13       30.16S
SOUTH BEND     CLOUDY    37  34  89 NW13      30.14S
6HR MIN TEMP:  35; 6HR MAX TEMP:  37; 6HR PCP:  0.01;

WARSAW +       CLOUDY    37  30  75 W10       30.14S

$$

INZ006>009-017-018-025>027-021900-
NORTHEAST INDIANA

CITY           SKY/WX    TMP DP  RH WIND       PRES   REMARKS
ANGOLA *+      CLOUDY    37  34  87 W7        30.10R
AUBURN +       CLOUDY    39  32  75 W9        30.12S
FORT WAYNE     CLOUDY    39  32  76 W16       30.14S
6HR MIN TEMP:  35; 6HR MAX TEMP:  39; 6HR PCP: TRACE;

HUNTINGTON +   CLOUDY    38  32  79 W9G17     30.15S
6HR MIN TEMP:  34; 6HR MAX TEMP:  38;

KENDALLVILLE + CLOUDY    38  32  81 W14       30.11R

$$

INZ028-029-035-036-043>045-051>053-021900-
WEST CENTRAL INDIANA

CITY           SKY/WX    TMP DP  RH WIND       PRES   REMARKS
CRAWFORDSVL +  CLOUDY    38  32  81 W8        30.20S
6HR MIN TEMP:  33; 6HR MAX TEMP:  38;

GREENCASTLE +  CLOUDY    37  32  81 SW5       30.22S
LAFAYETTE      CLOUDY    39  33  79 W10       30.20S
6HR MIN TEMP:  36; 6HR MAX TEMP:  39;

TERRE HAUTE    CLOUDY    41  30  65 W6        30.23F
6HR MIN TEMP:  35; 6HR MAX TEMP:  41;


$$

INZ030>032-037>040-046>048-054>057-064-065-021900-
CENTRAL INDIANA

CITY           SKY/WX    TMP DP  RH WIND       PRES   REMARKS
ANDERSON       CLOUDY    37  30  75 W12       30.19S
CP ATTERBURY + CLOUDY    41  32  70 W7        30.22F
COLUMBUS       CLOUDY    39  32  75 W9        30.22F
FISHERS *+     CLOUDY    37  34  87 W8        30.20
FRANKFORT +    CLOUDY    42  35  76 W13       30.21S
GREENWOOD *+   CLOUDY    39  32  76 W9        30.21S
6HR MIN TEMP:  36; 6HR MAX TEMP:  39;

INDIANAPOLIS   CLOUDY    39  31  72 W8        30.20F
6HR MIN TEMP:  36; 6HR MAX TEMP:  39;

-EAGLE CREEK   CLOUDY    40  31  70 W12       30.20S
6HR MIN TEMP:  36; 6HR MAX TEMP:  40;

KOKOMO +       CLOUDY    39  32  76 W13       30.18S
6HR MIN TEMP:  35; 6HR MAX TEMP:  39; 6HR PCP: TRACE;

MARION +       CLOUDY    38  32  79 W16       30.18R
MT COMFORT *+  CLOUDY    39  32  75 W10       30.20S
SHELBYVILLE    CLOUDY    40  31  70 W10       30.20S
6HR MIN TEMP:  37; 6HR MAX TEMP:  40;

ZIONSVILLE +   CLOUDY    37  32  81 W8        30.20S
6HR MIN TEMP:  33; 6HR MAX TEMP:  37;


$$

INZ033-034-041-042-049-050-058-059-021900-
EAST CENTRAL INDIANA

CITY           SKY/WX    TMP DP  RH WIND       PRES   REMARKS
MUNCIE         CLOUDY    39  31  72 NW12      30.18R
6HR MIN TEMP:  36; 6HR MAX TEMP:  39;


$$

INZ060-061-067>069-081>083-085>088-021900-
SOUTHWEST INDIANA

CITY           SKY/WX    TMP DP  RH WIND       PRES   REMARKS
EVANSVILLE     SUNNY     46  30  53 N8        30.27F
6HR MIN TEMP:  25; 6HR MAX TEMP:  46;

HUNTINGBURG *+ PTSUNNY   43  30  61 VRB5      30.26S
6HR MIN TEMP:  25; 6HR MAX TEMP:  43;

WASHINGTON +   PTSUNNY   42  33  70 NW6       30.25S
6HR MIN TEMP:  31; 6HR MAX TEMP:  42;


$$

INZ062-063-066-070>080-084-089>092-021900-
SOUTH CENTRAL AND SOUTHEAST INDIANA

CITY           SKY/WX    TMP DP  RH WIND       PRES   REMARKS
BLOOMINGTON    CLOUDY    40  30  67 NW7       30.22F
6HR MIN TEMP:  34; 6HR MAX TEMP:  40;

MADISON *+     CLOUDY    39  30  70 W6        30.24F
NORTH VERNON + CLOUDY    39  36  87 W9        30.23S
SEYMOUR +      CLOUDY    43  30  61 W10       30.23F

$$





USA.gov is the U.S. government's official web portal to all federal, state and local government web resources and services.